Temp
19 20 20 20 20 21 21 22 22 23 23 23 23 24 24 24 24 25 26 26 27 26 25 25 24 24 22 21 22 22 26 26 27 27 28 29 29 29 29 29 27 26 26 26 25
19 19 20 20 21 21 22 22 23 23 23 23 23 24 24 24 24 25 26 26 26 26 25 25 25 24 23 23 23 25 26 27 28 29 29 29 28 29 29 30 28 26 24 25 25
18 19 19 20 21 22 22 23 23 23 24 23 23 24 24 24 24 25 26 26 26 25 25 25 25 24 24 23 24 24 27 27 28 28 27 29 29 28 30 31 31 30 24 24 23
18 19 19 20 21 22 23 23 23 23 24 24 23 24 24 24 26 25 26 27 25 24 24 24 24 24 25 26 25 26 26 26 28 28 28 28 28 29 28 30 29 29 25 25 22
19 19 20 21 22 22 22 23 23 24 24 24 24 24 23 24 25 26 26 26 25 25 24 25 24 24 26 26 26 26 27 27 27 26 26 26 27 28 28 28 27 28 25 24 23
19 19 20 21 22 22 22 23 24 24 24 24 24 23 24 25 25 26 26 26 25 25 25 25 25 25 26 26 27 26 26 27 26 27 26 27 29 28 27 26 27 27 25 22 21
19 19 20 21 22 22 22 23 23 24 24 24 24 23 24 25 25 26 26 25 25 25 25 25 25 25 25 27 25 25 27 28 28 28 29 26 29 26 24 25 26 25 23 22 21
19 20 20 21 22 22 22 23 23 23 23 23 23 24 25 26 26 26 26 26 25 25 25 25 25 25 25 25 26 26 26 28 28 27 27 27 28 26 23 24 24 23 23 22 21
19 20 20 21 22 22 22 22 23 23 23 23 23 23 25 25 26 26 26 26 26 25 25 25 25 24 25 26 27 26 27 26 27 26 27 28 26 25 23 23 23 22 22 22 21
19 20 21 21 22 22 22 23 22 22 23 23 23 24 25 26 26 26 26 26 26 26 25 25 24 26 25 27 26 26 26 27 26 27 27 27 25 25 23 23 23 22 21 21 21
19 20 21 21 22 21 22 23 22 22 22 22 22 23 25 26 26 27 27 26 26 26 27 23 27 27 27 25 26 25 25 25 27 26 26 25 25 24 23 24 23 22 21 21 19
20 20 21 21 22 21 21 21 19 19 19 23 23 23 25 25 26 26 26 26 26 26 24 26 27 26 24 24 24 24 25 26 26 25 26 25 25 24 24 23 22 22 21 20 20
19 20 21 21 22 22 21 20 19 19 19 22 23 24 25 26 26 26 26 26 26 25 25 26 27 25 26 25 25 25 26 26 26 26 26 26 26 25 24 23 22 23 22 21 19
19 20 21 21 22 21 20 20 20 20 23 26 26 26 26 26 27 27 27 27 26 27 24 26 26 26 26 26 25 27 25 25 26 26 27 25 27 24 24 24 24 23 22 22 20
19 20 21 21 21 21 20 20 20 20 25 26 26 26 26 26 26 27 27 27 27 26 26 26 26 26 26 26 25 26 24 25 25 26 25 25 26 27 23 25 25 23 21 21 20
19 20 21 21 21 21 21 21 20 23 24 26 25 26 27 26 26 26 26 26 25 26 25 25 24 26 26 25 25 24 25 23 22 24 25 24 25 26 26 25 25 24 21 20 19
19 20 21 21 21 21 21 21 23 24 24 25 25 25 24 25 26 25 26 25 26 26 25 25 25 25 24 26 24 25 25 25 25 25 25 22 23 25 25 24 23 22 21 19 18
19 20 20 21 21 21 21 22 23 23 24 24 23 24 25 24 24 24 24 25 24 24 24 25 24 25 24 24 24 23 23 24 22 23 24 22 24 25 23 22 21 21 20 19 19
19 20 20 20 21 21 20 23 23 22 22 23 24 24 24 24 24 25 23 24 24 24 25 24 24 23 24 24 23 23 23 21 22 19 21 23 23 24 22 22 22 21 20 19 18
18 19 19 20 20 20 21 19 21 21 22 23 24 23 23 23 24 24 24 24 24 23 22 23 24 23 23 23 23 24 22 23 22 21 21 22 22 24 24 23 21 21 20 18 17
18 18 19 19 20 20 21 20 20 21 20 23 23 23 23 23 23 23 22 23 23 23 22 23 23 23 23 23 23 23 23 20 21 21 21 21 22 23 23 21 20 20 19 17 17
16 18 18 19 20 13 19 18 18 21 20 22 23 23 23 22 23 23 23 22 20 22 23 20 23 23 23 21 20 21 22 22 21 21 21 20 21 23 22 21 18 19 18 17 16
12 14 17 18 19 19 17 19 19 20 21 21 22 22 22 22 22 22 22 21 20 22 22 21 21 22 22 22 21 22 22 20 19 18 20 20 22 21 20 20 19 18 17 17 16
11 15 16 16 14 16 17 18 19 18 19 19 20 21 21 21 19 21 21 21 20 20 18 20 19 21 22 22 22 21 21 21 20 20 21 21 21 22 22 20 19 18 17 16 15
11 11 10 16 16 15 15 16 18 19 18 18 20 20 20 20 20 21 20 21 20 19 19 21 21 20 22 21 21 21 21 22 21 20 19 22 21 21 20 18 17 16 15 15 14
9 9 10 11 10 14 13 16 17 17 17 19 19 19 19 20 21 20 20 20 21 19 20 18 20 18 19 21 21 20 21 21 21 21 21 20 20 20 17 17 17 15 15 14 14
8 8 8 11 12 14 16 15 16 16 17 17 17 18 19 19 17 18 19 18 19 19 18 18 18 18 19 19 19 18 20 20 21 21 20 20 21 19 19 18 16 14 14 13 12
Height
1521 1518 1515 1512 1510 1507 1504 1502 1500 1499 1498 1497 1496 1495 1495 1495 1495 1494 1495 1497 1497 1499 1501 1503 1505 1506 1507 1509 1508 1508 1507 1510 1506 1505 1502 1499 1497 1493 1491 1489 1488 1487 1487 1488 1489
1522 1518 1515 1511 1508 1505 1503 1500 1498 1496 1495 1494 1494 1493 1492 1492 1492 1491 1493 1492 1494 1497 1500 1502 1503 1505 1508 1508 1508 1508 1508 1506 1502 1499 1498 1497 1497 1493 1490 1485 1484 1484 1484 1486 1487
1522 1518 1514 1509 1506 1503 1500 1498 1496 1494 1492 1491 1491 1491 1490 1490 1491 1491 1490 1490 1492 1496 1500 1502 1503 1505 1506 1507 1507 1507 1506 1502 1499 1498 1498 1495 1493 1491 1488 1483 1481 1480 1482 1483 1484
1522 1517 1513 1509 1504 1500 1498 1496 1494 1492 1490 1489 1489 1489 1489 1490 1494 1491 1490 1489 1491 1495 1499 1500 1502 1504 1505 1504 1505 1505 1502 1502 1498 1497 1496 1495 1491 1488 1486 1483 1481 1477 1478 1478 1480
1522 1517 1512 1507 1503 1499 1496 1494 1491 1489 1488 1487 1486 1487 1488 1490 1491 1491 1491 1491 1492 1495 1498 1499 1501 1503 1502 1504 1504 1503 1500 1499 1498 1496 1494 1491 1489 1489 1487 1482 1477 1474 1473 1473 1476
1521 1516 1511 1506 1501 1498 1495 1491 1489 1487 1486 1485 1485 1486 1488 1490 1490 1491 1492 1493 1495 1496 1497 1499 1500 1502 1502 1503 1503 1501 1499 1496 1494 1492 1490 1489 1488 1487 1485 1479 1474 1470 1471 1474 1476
1521 1516 1511 1506 1500 1497 1493 1490 1488 1488 1486 1485 1485 1486 1488 1490 1490 1491 1493 1494 1496 1497 1498 1499 1500 1502 1502 1501 1502 1500 1497 1492 1492 1491 1489 1488 1487 1492 1487 1479 1475 1471 1472 1474 1475
1520 1515 1511 1505 1500 1497 1493 1490 1489 1488 1487 1486 1486 1487 1488 1489 1491 1492 1493 1495 1496 1497 1498 1499 1500 1501 1501 1501 1500 1498 1497 1497 1490 1492 1490 1489 1494 1491 1488 1483 1477 1474 1474 1474 1475
1519 1515 1510 1505 1500 1497 1493 1490 1489 1488 1487 1487 1488 1487 1489 1490 1491 1491 1493 1495 1496 1497 1498 1499 1500 1500 1501 1500 1501 1502 1504 1503 1498 1493 1493 1489 1496 1492 1488 1483 1479 1477 1475 1476 1479
1519 1514 1510 1505 1500 1497 1493 1489 1488 1488 1488 1488 1488 1491 1490 1491 1490 1491 1492 1494 1496 1497 1499 1500 1500 1499 1502 1500 1512 1507 1505 1501 1503 1492 1490 1493 1497 1493 1489 1486 1484 1481 1478 1478 1479
1518 1514 1509 1504 1500 1497 1494 1489 1492 1491 1487 1488 1489 1487 1487 1489 1490 1490 1491 1493 1495 1496 1497 1500 1499 1500 1497 1500 1500 1504 1506 1507 1494 1493 1494 1495 1496 1494 1492 1487 1486 1483 1481 1480 1479
1516 1512 1509 1504 1500 1498 1495 1494 1496 1498 1492 1487 1485 1486 1486 1488 1489 1490 1492 1494 1495 1497 1499 1500 1500 1496 1499 1500 1501 1504 1504 1501 1493 1493 1491 1495 1496 1495 1494 1491 1489 1485 1483 1482 1479
1516 1511 1508 1504 1500 1499 1497 1497 1496 1495 1495 1487 1485 1485 1486 1488 1488 1489 1491 1492 1493 1497 1498 1500 1497 1495 1495 1498 1500 1502 1501 1499 1500 1492 1490 1492 1493 1494 1493 1492 1491 1488 1485 1483 1480
1515 1510 1506 1504 1502 1499 1498 1497 1496 1495 1494 1489 1486 1486 1487 1486 1487 1488 1489 1492 1493 1495 1499 1498 1497 1497 1497 1499 1500 1501 1498 1497 1495 1498 1499 1495 1502 1497 1493 1492 1491 1489 1486 1482 1479
1514 1510 1506 1503 1501 1500 1500 1497 1496 1496 1508 1488 1486 1487 1485 1487 1487 1487 1488 1489 1492 1494 1498 1500 1498 1499 1499 1500 1498 1499 1497 1496 1496 1495 1499 1499 1501 1488 1493 1490 1489 1490 1490 1487 1481
1513 1509 1505 1503 1501 1500 1498 1496 1497 1499 1508 1489 1486 1486 1485 1486 1486 1487 1488 1490 1491 1494 1496 1498 1498 1498 1499 1498 1498 1497 1496 1499 1500 1498 1506 1502 1502 1490 1488 1488 1486 1486 1488 1487 1483
1511 1507 1503 1501 1501 1498 1496 1496 1498 1501 1491 1494 1490 1489 1489 1489 1487 1488 1488 1492 1494 1501 1504 1500 1500 1500 1499 1498 1498 1496 1497 1505 1510 1508 1506 1506 1506 1489 1485 1487 1489 1487 1486 1486 1484
1508 1504 1501 1500 1499 1498 1496 1496 1506 1497 1494 1490 1491 1490 1491 1492 1491 1490 1493 1496 1496 1497 1503 1506 1512 1501 1501 1501 1504 1505 1505 1511 1527 1519 1509 1506 1504 1489 1487 1488 1489 1488 1486 1485 1484
1505 1502 1500 1499 1498 1497 1497 1499 1496 1497 1495 1493 1490 1492 1494 1492 1492 1490 1496 1497 1497 1497 1502 1507 1507 1502 1502 1501 1503 1507 1510 1512 1516 1525 1520 1504 1496 1485 1487 1487 1488 1487 1486 1485 1483
1503 1500 1499 1498 1497 1496 1496 1501 1498 1496 1494 1493 1495 1494 1498 1496 1493 1492 1497 1498 1498 1498 1499 1503 1508 1503 1503 1504 1505 1502 1508 1512 1512 1526 1527 1507 1506 1492 1484 1484 1487 1485 1485 1484 1482
1502 1499 1498 1497 1497 1496 1497 1499 1498 1495 1495 1493 1492 1495 1496 1496 1496 1498 1503 1500 1500 1499 1499 1500 1504 1505 1502 1503 1505 1507 1508 1515 1515 1518 1518 1517 1500 1484 1485 1486 1485 1484 1484 1483 1481
1502 1501 1498 1496 1498 1502 1499 1499 1499 1495 1494 1492 1491 1491 1493 1496 1497 1498 1501 1501 1500 1499 1500 1504 1503 1508 1505 1505 1507 1506 1507 1508 1516 1519 1513 1513 1499 1482 1484 1485 1486 1483 1483 1481 1479
1503 1500 1497 1496 1497 1498 1499 1498 1498 1495 1494 1493 1492 1492 1493 1495 1501 1499 1500 1502 1500 1500 1500 1502 1507 1511 1508 1506 1505 1504 1504 1508 1512 1516 1510 1511 1494 1483 1484 1483 1483 1482 1481 1480 1478
1507 1502 1498 1497 1500 1500 1499 1499 1497 1496 1496 1496 1495 1493 1494 1497 1499 1501 1500 1501 1501 1501 1502 1502 1507 1506 1510 1506 1503 1507 1503 1502 1506 1509 1498 1495 1487 1480 1479 1481 1480 1480 1479 1478 1475
1508 1508 1508 1502 1501 1503 1502 1502 1499 1497 1496 1496 1495 1495 1496 1500 1500 1500 1500 1500 1501 1502 1502 1501 1506 1506 1500 1501 1501 1499 1497 1495 1499 1494 1500 1483 1482 1478 1480 1481 1480 1479 1477 1474 1471
1510 1510 1509 1508 1506 1504 1503 1502 1501 1500 1499 1496 1496 1496 1497 1498 1497 1500 1499 1501 1499 1502 1501 1504 1504 1505 1503 1497 1496 1497 1492 1489 1488 1485 1483 1482 1481 1477 1479 1479 1478 1477 1475 1472 1468
1510 1510 1510 1507 1506 1504 1500 1502 1501 1502 1500 1500 1501 1498 1496 1499 1500 1500 1498 1499 1499 1500 1502 1504 1502 1506 1502 1497 1496 1500 1484 1483 1482 1479 1479 1482 1474 1477 1475 1476 1477 1476 1475 1471 1466
Wind_Speed
20 19 18 17 16 15 14 14 13 12 11 10 10 9 9 9 11 12 12 8 7 13 10 10 10 9 9 5 3 1 2 1 4 6 9 10 10 9 9 9 5 6 5 4 26
23 22 20 19 18 15 15 14 14 13 12 10 9 8 7 7 8 8 5 8 10 10 13 12 9 10 5 3 3 2 1 1 2 10 8 12 7 11 8 15 5 6 10 12 27
25 24 23 22 20 18 15 14 13 12 10 9 8 7 6 4 0 3 2 4 10 12 11 7 7 8 3 3 4 3 3 2 10 9 6 13 13 9 8 11 17 15 14 19 29
26 25 25 24 22 19 16 13 13 12 12 10 9 5 3 1 3 4 6 4 12 15 14 9 9 6 3 3 4 4 7 7 7 9 10 11 14 13 8 14 19 17 13 20 30
26 27 27 26 23 17 15 16 15 14 10 8 5 2 1 2 4 2 7 9 12 14 13 10 10 5 3 3 2 6 5 6 10 16 15 14 13 7 11 18 19 14 12 21 28
27 27 29 28 22 17 18 19 13 8 7 3 1 3 3 3 6 8 10 11 8 8 8 9 7 5 2 2 3 1 9 15 12 12 4 5 6 3 20 24 17 7 9 17 24
27 28 29 29 21 19 21 15 8 9 7 6 4 3 4 5 8 9 8 6 5 3 4 8 6 3 1 3 2 4 9 6 2 6 4 8 9 13 21 21 16 7 3 11 19
27 28 29 30 21 20 22 11 6 8 7 6 5 3 3 9 5 5 6 4 3 4 5 5 4 2 1 2 3 3 0 5 4 6 3 6 5 11 20 15 18 15 2 8 15
27 28 29 29 21 19 22 10 7 5 4 3 3 3 5 3 3 3 6 3 4 4 6 4 3 1 1 2 1 4 5 7 5 5 5 6 4 13 17 17 18 19 11 4 6
27 28 29 29 20 17 22 11 7 4 3 4 2 2 4 4 4 2 5 9 3 4 5 2 2 1 1 1 3 7 5 5 7 2 4 8 6 7 13 15 16 17 17 12 4
28 28 27 28 18 17 21 8 6 2 6 1 2 3 1 3 0 5 6 9 3 2 1 2 3 2 2 2 2 1 4 8 4 2 2 7 8 7 11 13 16 17 17 16 13
28 28 27 27 16 16 15 10 10 7 7 5 5 11 9 4 1 6 8 4 3 2 3 1 1 3 2 2 2 2 4 3 8 2 2 4 4 3 7 8 12 16 16 17 18
27 28 27 27 12 16 8 13 11 9 3 5 2 0 4 7 3 8 12 5 3 3 3 1 3 4 3 4 2 1 3 2 3 7 2 3 3 2 3 6 10 14 16 16 18
26 27 27 26 10 12 5 11 10 4 2 2 0 2 4 2 1 6 13 4 2 1 5 2 1 2 4 4 1 0 3 7 8 4 6 4 7 3 2 2 5 13 18 21 22
25 25 24 23 12 8 8 10 6 1 2 1 2 1 2 2 1 2 9 5 5 4 3 3 2 2 5 2 2 1 4 5 6 6 2 2 4 3 3 4 3 7 12 16 20
23 23 22 18 9 9 11 7 2 2 2 2 2 2 1 3 3 2 3 3 3 3 2 2 1 2 3 1 2 6 3 2 2 1 5 3 3 4 2 1 6 10 13 15 18
22 21 21 8 6 10 13 0 2 2 1 3 2 4 2 4 2 4 2 3 1 2 2 2 2 1 3 1 2 5 6 3 2 3 2 4 4 4 3 3 3 10 15 16 17
21 18 13 3 7 11 11 1 3 1 2 2 3 1 3 5 3 3 3 3 4 2 2 3 4 2 5 3 3 4 3 3 4 3 4 1 4 2 4 3 2 8 12 14 16
21 15 5 6 8 12 4 2 1 1 2 4 1 2 2 2 3 2 4 2 3 1 1 3 2 1 4 4 2 3 2 2 1 1 3 1 3 7 3 6 9 13 12 12 15
21 15 1 5 8 9 1 1 1 2 4 2 1 0 1 3 1 2 3 3 2 3 3 3 2 1 2 4 8 5 5 1 2 3 5 3 5 9 7 6 7 9 12 14 16
16 8 2 7 8 2 1 1 3 3 3 2 2 3 2 1 2 2 3 3 4 2 3 3 2 2 2 1 1 3 3 4 0 3 4 6 4 3 9 9 10 12 14 13 16
6 3 4 6 1 1 1 1 4 4 6 2 1 2 2 2 2 3 3 3 9 2 0 1 1 3 1 1 3 1 1 1 3 3 5 6 10 6 6 7 9 13 14 15 15
13 6 3 2 2 2 0 0 1 5 4 4 2 3 1 3 3 2 2 1 6 2 2 4 1 3 3 4 3 3 3 3 1 2 12 10 7 1 8 9 11 14 16 17 18
6 3 4 5 5 1 1 1 1 4 1 4 2 1 3 2 3 4 4 1 4 3 4 3 2 5 7 7 3 6 6 7 8 7 14 14 20 19 16 10 14 14 18 18 17
4 2 2 3 3 3 1 2 1 1 2 6 2 4 0 3 2 2 1 1 1 1 2 1 4 5 13 10 8 12 15 16 14 17 11 17 20 16 11 7 13 13 15 16 17
3 3 4 3 5 2 1 2 1 3 3 2 2 5 1 2 2 6 3 1 2 2 3 1 7 2 12 13 15 18 18 20 18 17 18 18 16 5 3 9 9 13 16 21 23
2 3 2 2 2 2 2 3 3 2 2 1 6 3 2 2 8 7 7 2 3 3 2 2 2 2 7 5 7 10 17 13 9 8 7 10 13 4 11 9 10 13 18 22 27
Wind_Direction
6 3 359 353 345 338 332 328 326 323 319 313 304 297 289 279 275 272 271 255 224 206 204 181 170 172 167 185 199 195 275 1 19 337 327 332 336 333 318 302 245 219 208 199 178
9 4 359 352 345 338 334 329 325 322 320 317 308 302 298 292 280 279 246 223 216 194 184 178 172 166 177 183 170 224 292 277 298 314 315 319 321 318 322 327 272 213 219 191 180
10 6 0 353 345 340 335 331 327 323 319 315 309 305 305 311 24 105 80 203 200 182 172 169 162 158 152 173 177 170 245 262 300 288 296 310 312 307 308 305 318 289 195 187 182
10 7 2 355 347 343 340 337 331 327 318 307 297 295 294 129 130 106 71 104 174 171 175 170 162 161 157 199 181 250 250 257 288 301 309 302 301 307 287 301 320 309 223 212 191
10 7 3 357 351 349 345 339 329 326 321 306 277 261 190 149 124 128 78 93 145 171 180 188 170 161 179 192 210 233 267 278 279 289 283 282 272 279 342 326 316 307 236 214 203
8 8 5 359 355 353 348 341 340 355 358 359 103 138 139 133 131 125 106 96 118 155 186 182 186 179 148 224 240 287 281 285 294 305 235 275 346 12 332 338 346 319 235 211 201
7 8 6 1 358 355 353 356 17 12 26 54 74 113 145 127 121 135 128 111 110 100 179 168 154 181 164 273 310 284 303 318 61 355 349 327 74 10 343 348 356 4 213 206 207
5 7 6 2 359 358 359 359 4 16 41 59 52 109 103 146 141 167 167 154 125 95 139 153 187 210 228 304 335 336 3 1 33 347 357 322 19 356 356 358 6 14 292 214 216
2 4 4 1 358 1 3 355 352 7 16 17 43 70 123 143 125 127 185 143 149 131 144 134 150 117 50 315 297 32 342 330 331 310 338 9 359 342 358 13 19 15 12 283 241
359 360 2 1 360 2 2 350 336 335 331 327 282 126 147 135 125 128 174 187 131 126 114 145 98 186 113 259 346 322 326 318 283 283 320 90 57 358 4 24 26 24 22 21 355
355 356 359 360 1 1 3 13 2 4 340 267 257 264 213 145 218 139 165 177 174 123 137 41 222 234 328 227 272 272 272 288 291 324 265 111 97 36 0 26 14 20 18 20 20
351 352 355 357 356 359 2 49 32 329 317 300 276 253 247 249 190 172 163 145 135 132 133 157 333 333 173 197 203 210 263 257 295 311 267 146 143 101 28 16 9 1 8 5 4
348 347 351 355 357 355 20 25 358 340 280 305 324 86 126 166 178 180 173 164 135 162 171 182 355 340 132 101 150 109 310 327 300 326 119 319 213 144 54 359 2 7 360 7 7
345 344 347 356 359 359 27 349 343 333 349 24 110 152 159 156 130 180 186 166 126 131 153 235 21 69 93 72 255 331 310 276 289 281 297 342 299 208 219 261 8 8 360 354 357
344 342 344 350 351 7 346 340 329 328 115 27 89 132 156 209 289 134 191 196 170 155 201 74 130 89 50 57 216 309 317 285 288 241 286 123 262 146 207 208 23 6 1 355 349
342 341 338 343 2 1 347 335 127 246 150 76 24 349 166 26 7 27 136 147 121 118 59 19 13 42 348 301 5 315 236 72 91 193 240 99 315 258 194 356 327 347 359 355 353
336 337 333 335 352 355 348 58 220 221 328 17 12 14 94 8 49 22 102 63 216 194 85 69 50 307 9 349 84 2 342 322 202 205 293 109 269 295 213 231 312 328 339 348 352
335 336 333 321 341 347 348 167 227 88 21 4 18 91 85 1 54 46 95 108 59 77 116 185 183 39 353 37 338 39 352 323 291 261 310 172 250 152 308 209 288 328 330 341 352
336 340 330 333 341 339 350 208 135 146 306 321 37 103 75 38 358 95 58 69 34 47 180 172 154 15 46 43 302 110 56 8 245 138 260 304 258 249 221 233 277 310 321 332 342
338 335 305 349 340 335 78 182 223 257 321 225 117 360 118 11 91 66 74 16 52 21 275 155 261 107 132 183 60 75 132 247 46 300 290 257 275 268 290 306 309 317 324 329 336
339 333 320 332 337 2 155 238 288 293 326 217 153 130 122 117 59 71 44 71 7 49 52 139 266 137 246 69 135 159 134 71 65 275 290 295 253 274 298 312 310 318 323 326 331
357 303 314 329 345 43 146 260 340 337 5 25 140 114 143 132 107 114 122 28 344 264 94 74 178 234 312 33 286 265 127 115 337 289 247 280 281 284 266 299 303 307 315 320 324
338 291 329 349 219 177 298 277 325 356 2 15 78 22 88 130 129 129 135 76 24 69 160 177 213 258 212 166 163 229 182 130 122 234 256 275 278 208 297 292 294 299 313 320 320
346 321 353 63 70 47 19 23 329 353 92 353 329 125 122 115 35 151 160 170 9 92 100 138 156 256 270 288 284 238 228 236 273 268 275 255 282 290 301 307 319 316 316 316 312
357 24 359 350 59 19 317 340 311 354 31 24 108 44 102 146 137 173 190 207 161 121 111 207 248 235 267 251 229 259 263 270 257 253 253 282 292 292 309 305 317 324 326 322 319
15 8 349 297 308 283 295 174 201 326 307 46 53 347 351 196 239 189 185 222 259 152 207 120 275 242 266 264 259 262 258 262 262 261 256 275 284 313 278 318 335 349 339 331 325
24 350 349 317 322 261 211 165 138 332 218 318 352 296 238 58 316 294 227 280 305 284 205 249 240 262 279 296 254 252 253 251 244 249 265 277 307 315 307 328 352 347 343 340 328